Location: Go?cza
(50.3372°N, 19.9313°E)
Time: 01:54:35
(UTC+00:00)

Meteor 1-21 - Pass Details

Date: 23 May 2024
Orbit: 844 x 886 km, 81.2° (Epoch: 18 June)

Event Time Altitude Azimuth Distance (km) Brightness Sun altitude
Exits shadow 00:04:42 26° 214° (SSW) 1,653 5.1 -16.4°
Maximum altitude 00:07:57 61° 286° (WNW) 981 4.5 -16.2°
Drops below altitude 10° 00:13:39 10° 7° (N) 2,536 7.9 -15.9°
Sets 00:16:10 0° 11° (N) 3,484 9.0 -15.7°
